Other Public Products
Issued by NWS Grand Forks, ND

Home | Current Version | Previous Version | Graphics & Text | Print | Product List | Glossary On
Versions: 1 2 3 4 5 6 7 8 9 10 11 12 13 14 15 16 17 18 19 20 21 22 23 24 25 26 27 28 29 30 31 32 33 34 35 36 37 38 39 40 41 42 43 44 45 46 47 48 49 50
529
FPUS83 KFGF 151610
OPUFGF
PRAIRIE TO PINES WEATHER ROUNDUP
NATIONAL WEATHER SERVICE EASTERN NORTH DAKOTA/GRAND FORKS ND
1000 AM CST FRI DEC 15 2017

 **SATELLITE DATA USED TO AUGMENT SKY COVER AT AUTOMATED STATIONS**
 *****  WEATHER ACROSS EASTERN NORTH DAKOTA  *****

CITY           SKY/WX    TMP DP  RH WIND       PRES   REMARKS
GRAND FORKS    CLOUDY    18  16  92 S9        29.83S WCI   7
GRND FORKS AFB FLURRIES  18  15  85 S9        29.81F WCI   7
GRND FORKS NWS   N/A     18 N/A N/A S9          N/A  WCI   6
BUXTON         NOT AVBL
DEVILS LAKE    CLOUDY    23  21  92 SE9       29.72F WCI  13
FARGO          FLURRIES  21  17  84 S7        29.85R WCI  12
WAHPETON ARPT  PTSUNNY   23  19  86 SE6       29.86S WCI  16
$$

 *****  WEATHER ACROSS CENTRAL AND WESTERN NORTH DAKOTA  *****

CITY           SKY/WX    TMP DP  RH WIND       PRES   REMARKS
JAMESTOWN      CLOUDY    25  24  96 S8        29.75F WCI  16
BISMARCK       CLOUDY    31  24  75 S3        29.72F
MINOT          CLOUDY    33  25  72 S9        29.64F
MINOT AFB      MOCLDY    31  25  76 S7        29.64F WCI  25
GARRISON         N/A     31  24  75 SW10      29.66F WCI  22
WILLISTON      FAIR      32  25  75 SW6       29.65F
DICKINSON      FAIR      35  23  61 W17       29.65F WCI  25
HETTINGER      FAIR      34  23  64 W14       29.73F WCI  25
$$

 *****  OTHER OBSERVATIONS NORTHEAST NORTH DAKOTA  *****

CITY           SKY/WX    TMP DP  RH WIND       PRES   REMARKS
WALHALLA       FAIR      18  18 100 SE9       29.77F WCI   6
LANGDON        PTSUNNY   21  21 100 S15       29.71F WCI   8
CAVALIER       CLOUDY    16  14  93 SE9       29.79F WCI   4
GRAFTON        CLOUDY    16  16 100 SE10      29.84F WCI   3
CANDO          CLOUDY    25  25 100 S8        29.72F WCI  16
FORT TOTTEN      N/A     23  22  95 SE6       29.95S WCI  16
ROLLA          PTSUNNY   23  23 100 S7        29.68F WCI  15
RUGBY          FAIR      27  27 100 SE6       29.68F WCI  20
 ***** THE ABOVE OBSERVATIONS ARE NON NWS ARE NOT QUALITY
        CONTROLLED AND MAY MIS-REPORT RAIN FOR SNOW...
$$

 *****  OTHER OBSERVATIONS SOUTHEAST NORTH DAKOTA *****

CITY           SKY/WX    TMP DP  RH WIND       PRES   REMARKS
COOPERSTOWN    CLOUDY    21  19  93 S13       29.76F WCI   9
VALLEY CITY    CLOUDY    21  21 100 S10       29.80S WCI  10
OAKES            N/A     23  23 100 SE5       29.80F WCI  17
GWINNER          N/A     23  23 100 S6        29.82R WCI  16
SHEYENNE NWR     N/A     22  21  96 SE7       29.95S WCI  13
BUFFALO        NOT AVBL
WYNDMERE       NOT AVBL
 ***** THE ABOVE OBSERVATIONS ARE NON NWS ARE NOT QUALITY
       CONTROLLED AND MAY MIS-REPORT RAIN FOR SNOW...
$$

  *****  WEATHER ACROSS NORTHERN MINNESOTA  *****

CITY           SKY/WX    TMP DP  RH WIND       PRES   REMARKS
FLAG ISLAND    CLOUDY     7   1  78 SW6       29.83R WCI  -3
WARROAD        CLOUDY     7   3  85 SW5       29.84S WCI  -2
ROSEAU         CLOUDY     9   3  78 SE3       29.83F
HALLOCK        LGT SNOW  14  10  85 SE9       29.82F WCI   2
THF RVR FALLS  FLURRIES  12   9  87 SE6       29.83S WCI   3
HALSTAD        NOT AVBL
FOSSTON        CLOUDY    10   7  85 SE5       29.84R WCI   2
BAUDETTE       CLOUDY     7   3  84 SW5       29.83S WCI  -2
WASKISH        FLURRIES   9   3  78 CALM      29.83S
CROOKSTON      FLURRIES  16  14  93 S6        29.85R WCI   7
$$
  *****  WEATHER ACROSS CENTRAL AND WEST MINNESOTA  *****

CITY           SKY/WX    TMP DP  RH WIND       PRES   REMARKS
BEMIDJI        LGT SNOW   8   4  83 CALM      29.82R
PARK RAPIDS    CLOUDY    11   7  84 CALM      29.81S
WADENA         FAIR      14  10  85 CALM      29.83S
DETROIT LAKES  PTSUNNY   18  16  93 CALM      29.83S
MOORHEAD       MIX PCPN  19  16  86 CALM      29.86R
FERGUS FALLS   FLURRIES  19  16  86 S3        29.87F
ELBOW LAKE     PTSUNNY   21  19  90 E5        29.84F WCI  15
MORRIS MN      LGT SNOW  25  19  80 CALM      29.84F
STAPLES        CLOUDY    14  10  85 CALM      29.83S
WHEATON        PTSUNNY   23  19  86 SE5       29.87S WCI  17
$$
  *****  WEATHER ELSEWHERE ACROSS MINNESOTA  *****

CITY           SKY/WX    TMP DP  RH WIND       PRES   REMARKS
DULUTH         CLOUDY     9   3  77 NW7       29.81S WCI  -2
INTRNTL FALLS  CLOUDY     6   0  76 CALM      29.83F
ELY            CLOUDY     7   1  78 CALM      29.79S
CLOQUET        CLOUDY    10   1  67 W7        29.84R WCI   0
BRAINERD       CLOUDY    17   9  70 CALM      29.84F
HIBBING        LGT SNOW   6   1  80 NW6       29.82S WCI  -4
ALEXANDRIA     CLOUDY    20  15  81 CALM      29.84F
SAINT CLOUD    CLOUDY    19  15  84 CALM      29.87F
MINNEAPOLIS    CLOUDY    25  21  85 VRB3      29.88F
$$

  *****  WEATHER ACROSS SOUTH DAKOTA  *****

CITY           SKY/WX    TMP DP  RH WIND       PRES   REMARKS
SIOUX FALLS    FAIR      34  26  72 W7        29.88F
BROOKINGS      FAIR      30  27  88 W9        29.84F WCI  22
WATERTOWN      PTSUNNY   29  27  92 SW12      29.81F WCI  19
HURON          FAIR      33  26  75 SW8       29.86R
SISSETON         N/A     25  24  96 SE9       29.82F WCI  15
ABERDEEN       CLOUDY    30  26  85 W9        29.83R WCI  22
MITCHELL       FAIR      32  24  72 SW10      29.88F WCI  24
PIERRE         FAIR      29  22  75 W8        29.83F WCI  21
MOBRIDGE       CLOUDY    32  24  72 S7        29.74F
RAPID CITY     FAIR      37  22  54 VRB3      29.83R
$$

  *****  SOME WEATHER IN NEARBY STATES *****

CITY           SKY/WX    TMP DP  RH WIND       PRES   REMARKS
GLASGOW MT     FAIR      28  22  78 W6        29.69F WCI  22
GREAT FALLS MT FAIR      44  16  32 SW28G40   29.82R
CHEYENNE WY    FAIR      40  11  30 W26G39    29.98R
SCOTTSBLUFF NE FAIR      29  22  75 CALM      29.96S
OMAHA NE       PTSUNNY   38  24  57 SW9       30.03
DES MOINES IA  CLOUDY    36  24  62 W18       29.99F
DAVENPORT IA   PTSUNNY   31  21  66 W21       30.01F WCI  18
CHICAGO IL     PTSUNNY   28  15  58 W12       29.92S WCI  18
EAU CLAIRE WI  CLOUDY    17  10  74 NW9       29.88F WCI   6
LA CROSSE WI   CLOUDY    28  19  69 W7        29.91S WCI  21
$$

  *****  SOME NATIONAL WEATHER *****

CITY           SKY/WX    TMP DP  RH WIND       PRES   REMARKS
LA GUARDIA NY  CLOUDY    27  13  55 NW6       30.09F WCI  20
RALEIGH NC     PTSUNNY   38  25  59 N5        29.99F
ATLANTA GA     PTSUNNY   42  30  62 W9        30.07R
NEW ORLEANS LA LGT RAIN  49  41  74 N8        30.25R
OKLAHOMA CITY  FAIR      38  27  64 NW7       30.29S
ALBUQUERQUE NM FAIR      29  17  61 N5        30.35R WCI  24
SALT LAKE CITY PTSUNNY   29  23  78 E7        30.33S WCI  22
LOS ANGELES CA FAIR      62  22  21 E5        30.13R
BOISE ID       CLOUDY    26  22  84 SE5       30.35R WCI  20
SEATTLE WA     CLOUDY    39  35  86 SE12      30.17F
$$

*** WEATHER ACROSS MANITOBA...SASKATCHEWAN AND ONTARIO ***
                ***ONTARIO***

CITY           SKY/WX    TMP DP  RH WIND       PRES   REMARKS
GERALDTON      FLURRIES  -4  -9  77 NE8       29.77S WCI -19
THUNDER BAY    MOSUNNY   10   1  67 NW7       29.82S WCI   0
SIOUX LOOKOUT  CRYSTALS  -8 -11  84 N3        29.80S
TORONTO        CLOUDY    21  12  68 SW12      29.87F WCI   9
BIG TROUT LK   FLURRIES  -9 -15  77 NW10      29.87S WCI -28
PICKLE LAKE    LGT SNOW -15 -20  76 N5        29.83S WCI -27
DRYDEN         SUNNY     -6  -9  84 CALM      29.81R
KENORA         FLURRIES   0  -4  85 W5        29.82R WCI -10
$$
                *** MANITOBA***

CITY           SKY/WX    TMP DP  RH WIND       PRES   REMARKS
BRANDON        LGT SNOW  19  18  93 E6        29.68F WCI  11
DAUPHIN        FLURRIES  18  16  93 E7        29.69F WCI   8
ISLAND LAKE    MOCLDY    -9 -15  77 S5        29.91R WCI -21
PILOT MOUND      N/A     21  19  93 S9          N/A  WCI  11
THE PAS        CLOUDY     3  -2  78 E14       29.75F WCI -15
THOMPSON       PTCLDY   -18 -24  76 CALM      29.88S
WINNIPEG       LGT SNOW  10   7  85 SE10      29.81F WCI  -3
LYNN LAKE      FOG       -9 -13  84 E9        29.79R VSB 1   WCI -27
CHURCHILL      FLURRIES -11 -17  77 W9        29.95F WCI -29
GILLAM         PTCLDY   -18 -24  76 VRB2      29.93R
$$
                ***SASKATCHEWAN***

CITY           SKY/WX    TMP DP  RH WIND       PRES   REMARKS
ESTEVAN        CLOUDY    30  25  80 SW7       29.60F WCI  23
KINDERSLEY     CLOUDY    32  25  74 W7        29.59F
LLOYDMINSTER   CLOUDY    37  32  81 W14       29.53S
PRINCE ALBERT  LGT SNOW  27  25  93 E7        29.53F WCI  19
REGINA         CLOUDY    32  28  86 SW7       29.54F
YORKTON        FLURRIES  27  27 100 S9        29.56F W



USA.gov is the U.S. government's official web portal to all federal, state and local government web resources and services.